Probability
0 0 0 0 0 0 0 0 0 0 0 0 0 0 0 0 0 0 0 0 0 0 0 0 0 0 0 0 0 0 0 0 0 0 0 0 0 0 0 0 0 0 0
0 0 0 0 0 0 0 0 0 0 0 0 0 0 0 0 0 0 0 0 0 0 0 0 0 0 0 0 0 0 0 0 0 0 0 0 0 0 0 0 0 0 0
0 0 0 0 0 0 0 0 0 0 0 0 0 0 0 0 0 0 0 0 0 0 0 0 0 0 0 0 0 0 0 0 0 0 0 0 0 0 0 0 0 0 0
0 0 0 0 0 0 0 0 0 0 0 0 0 0 0 0 0 0 0 0 0 0 0 0 0 0 0 0 0 0 0 0 0 0 0 0 0 0 0 0 0 0 0
0 0 0 0 0 0 0 0 0 0 0 0 0 0 0 0 0 0 0 0 0 0 0 0 0 0 0 0 0 0 0 0 0 0 0 0 0 0 0 0 0 0 0
0 0 0 0 0 0 0 0 0 0 0 0 0 0 0 0 0 0 0 0 0 0 0 0 0 0 0 0 0 0 0 0 0 0 0 0 0 0 0 0 0 0 0
0 0 0 0 0 0 0 0 0 0 0 0 0 0 0 0 0 0 0 0 0 0 0 0 0 0 0 0 0 0 0 0 0 0 0 0 0 0 0 0 0 0 0
0 0 0 0 0 0 0 0 0 0 0 0 0 0 0 0 0 0 0 0 0 0 0 0 0 0 0 0 0 0 0 0 0 0 0 0 0 0 0 0 0 0 0
0 0 0 0 0 0 0 0 0 0 0 0 0 0 0 0 0 0 0 0 0 0 0 0 0 0 0 0 0 0 0 0 0 0 0 0 0 0 0 0 0 0 0
0 0 0 0 0 0 0 0 0 0 0 0 0 0 0 0 0 0 0 0 0 0 0 0 0 0 0 0 0 0 0 0 0 0 0 0 0 0 0 0 0 0 0
0 0 0 0 0 0 0 0 0 0 0 0 0 0 0 0 0 0 0 0 0 0 0 0 0 0 0 0 0 0 0 0 0 0 0 0 0 0 0 0 0 0 0
0 0 0 0 0 0 0 0 0 0 0 0 0 0 0 0 0 0 0 0 0 0 0 0 0 0 0 0 0 0 0 0 0 0 0 0 0 0 0 0 0 0 0
0 0 0 0 0 0 0 0 0 0 0 0 0 0 0 0 0 0 0 0 0 0 0 0 0 0 0 0 0 0 0 0 0 0 0 0 0 0 0 0 0 0 0
0 0 0 0 0 0 0 0 0 0 0 0 0 0 0 0 0 0 0 0 0 0 0 0 0 0 0 0 0 0 0 0 0 0 0 0 0 0 0 0 0 0 0
0 0 0 0 0 0 0 0 0 0 0 0 0 0 0 0 0 0 0 0 0 0 0 0 0 0 0 0 0 0 0 0 0 0 0 0 0 0 0 0 0 0 0
0 0 0 0 0 0 0 0 0 0 0 0 0 0 0 0 0 0 0 0 0 0 0 0 0 0 0 0 0 0 0 0 0 0 0 0 0 0 0 0 0 0 0
0 0 0 0 0 0 0 0 0 0 0 0 0 0 0 0 0 0 0 0 0 0 0 0 0 0 0 0 0 0 0 0 0 0 0 0 0 0 0 0 0 0 0
0 0 0 0 0 0 0 0 0 0 0 0 0 0 0 0 0 0 0 0 0 0 0 0 0 0 0 0 0 0 0 0 0 0 0 0 0 0 0 0 0 0 0
0 0 0 0 0 0 0 0 0 0 0 0 0 0 0 0 0 0 0 0 0 0 0 0 0 0 0 0 0 0 0 0 0 0 0 0 0 0 0 0 0 0 0
0 0 0 0 0 0 0 0 0 0 0 0 0 0 0 0 0 0 0 0 0 0 0 0 0 0 0 0 0 0 0 0 0 0 0 0 0 0 0 0 0 0 0
0 0 0 0 0 0 0 0 0 0 0 0 0 0 0 0 0 0 0 0 0 0 0 0 0 0 0 0 0 0 0 0 0 0 0 0 0 0 0 0 0 0 0
0 0 0 0 0 0 0 0 0 0 0 0 0 0 0 0 0 0 0 0 0 0 0 0 0 0 0 0 0 0 0 0 0 0 0 0 0 0 0 0 0 0 0
0 0 0 0 0 0 0 0 0 0 0 0 0 0 0 0 0 0 0 0 0 0 0 0 0 0 0 0 0 0 0 0 0 0 0 0 0 0 0 0 0 0 0
0 0 0 0 0 0 0 0 0 0 0 0 0 0 0 0 0 0 0 0 0 0 0 0 0 0 0 0 0 0 0 0 0 0 0 0 0 0 0 0 0 0 0
0 0 0 0 0 0 0 0 0 0 0 0 0 0 0 0 0 0 0 0 0 0 0 0 0 0 0 0 0 0 0 0 0 0 0 0 0 0 0 0 0 0 0
0 0 0 0 0 0 0 0 0 0 0 0 0 0 0 0 0 0 0 0 0 0 0 0 0 0 0 0 0 0 0 0 0 0 0 0 0 0 0 0 0 0 0
Height
5642 5644 5644 5645 5646 5646 5647 5647 5648 5649 5649 5650 5652 5653 5654 5655 5657 5658 5660 5662 5663 5664 5665 5666 5667 5667 5668 5669 5669 5670 5671 5671 5672 5673 5674 5674 5675 5676 5676 5677 5678 5679 5680
5633 5634 5635 5636 5636 5637 5638 5638 5638 5639 5640 5641 5642 5643 5645 5646 5647 5648 5649 5650 5651 5652 5653 5654 5655 5655 5656 5657 5657 5657 5658 5658 5659 5660 5660 5661 5661 5662 5663 5664 5665 5666 5667
5624 5625 5625 5626 5627 5627 5628 5629 5629 5630 5630 5631 5632 5634 5635 5636 5637 5638 5638 5640 5640 5641 5641 5642 5643 5643 5644 5644 5645 5645 5645 5645 5646 5646 5647 5647 5647 5648 5649 5650 5651 5652 5653
5614 5615 5616 5617 5617 5618 5618 5619 5619 5620 5621 5622 5623 5624 5625 5625 5626 5627 5627 5628 5629 5629 5630 5630 5631 5631 5632 5632 5632 5632 5632 5633 5633 5633 5633 5634 5634 5635 5635 5636 5637 5638 5639
5604 5605 5606 5607 5607 5608 5608 5609 5610 5610 5611 5612 5613 5614 5614 5615 5615 5616 5616 5617 5618 5618 5618 5618 5619 5619 5619 5619 5620 5620 5620 5620 5620 5620 5620 5620 5621 5622 5622 5622 5622 5623 5624
5594 5595 5596 5597 5597 5597 5598 5599 5600 5601 5601 5602 5603 5604 5604 5604 5604 5605 5605 5606 5606 5606 5607 5607 5607 5607 5606 5607 5607 5606 5607 5607 5607 5607 5607 5607 5608 5608 5608 5608 5608 5609 5611
5584 5584 5585 5586 5587 5587 5588 5589 5590 5590 5591 5592 5593 5593 5593 5594 5593 5593 5594 5594 5594 5594 5594 5594 5594 5594 5594 5594 5594 5594 5594 5594 5595 5595 5595 5595 5595 5595 5594 5594 5594 5595 5596
5573 5574 5575 5575 5576 5576 5577 5578 5579 5580 5580 5581 5582 5582 5582 5582 5582 5582 5582 5581 5581 5581 5581 5581 5582 5581 5581 5581 5581 5582 5582 5582 5582 5582 5582 5582 5581 5580 5580 5580 5580 5581 5582
5563 5563 5564 5564 5565 5565 5566 5567 5568 5568 5569 5570 5570 5570 5571 5571 5570 5570 5569 5569 5569 5569 5569 5569 5569 5569 5569 5569 5569 5569 5569 5569 5568 5568 5568 5567 5567 5567 5567 5567 5567 5567 5569
5553 5553 5553 5553 5554 5555 5555 5556 5557 5557 5558 5558 5559 5559 5559 5559 5558 5558 5557 5557 5557 5557 5557 5557 5557 5557 5556 5556 5556 5556 5556 5556 5555 5555 5554 5554 5554 5553 5553 5553 5553 5553 5553
5542 5542 5542 5542 5543 5544 5544 5545 5546 5546 5546 5547 5547 5547 5547 5547 5546 5546 5545 5545 5545 5545 5545 5545 5544 5544 5544 5543 5543 5543 5543 5542 5541 5541 5541 5541 5540 5540 5540 5539 5538 5538 5538
5531 5531 5531 5531 5532 5533 5534 5534 5534 5535 5535 5535 5536 5536 5536 5535 5535 5534 5534 5534 5533 5533 5533 5533 5532 5532 5531 5531 5530 5530 5529 5528 5528 5528 5528 5527 5527 5526 5525 5524 5524 5523 5523
5520 5520 5520 5520 5521 5522 5523 5523 5524 5524 5524 5524 5524 5525 5524 5524 5523 5523 5523 5522 5522 5521 5521 5520 5520 5519 5519 5518 5517 5516 5516 5515 5514 5514 5514 5513 5512 5511 5511 5510 5510 5509 5509
5508 5509 5509 5510 5510 5511 5511 5512 5512 5512 5512 5512 5513 5513 5513 5512 5512 5511 5511 5510 5510 5509 5509 5508 5508 5507 5506 5505 5505 5504 5503 5502 5501 5501 5500 5499 5498 5497 5497 5496 5496 5495 5495
5497 5498 5498 5499 5499 5500 5500 5500 5500 5501 5500 5501 5501 5501 5501 5501 5500 5500 5499 5498 5498 5497 5497 5496 5496 5495 5494 5493 5492 5491 5490 5489 5488 5487 5486 5486 5485 5484 5483 5482 5482 5482 5481
5487 5487 5488 5488 5488 5489 5489 5489 5489 5489 5489 5489 5489 5489 5489 5489 5488 5487 5487 5486 5486 5485 5484 5484 5483 5482 5482 5481 5480 5479 5477 5476 5475 5474 5473 5473 5472 5471 5470 5469 5469 5468 5469
5476 5477 5477 5477 5477 5477 5478 5478 5478 5478 5478 5478 5478 5477 5477 5477 5477 5476 5475 5475 5474 5473 5472 5472 5471 5470 5469 5468 5467 5466 5465 5464 5463 5462 5461 5460 5459 5458 5457 5457 5456 5455 5455
5466 5466 5466 5467 5467 5467 5467 5467 5467 5467 5467 5467 5467 5467 5466 5466 5466 5465 5464 5463 5462 5462 5461 5460 5459 5458 5457 5456 5455 5454 5453 5452 5451 5450 5449 5448 5447 5446 5445 5444 5443 5443 5443
5456 5456 5456 5456 5456 5456 5456 5456 5456 5456 5457 5457 5457 5456 5456 5455 5455 5454 5453 5452 5451 5451 5450 5449 5448 5447 5446 5445 5444 5442 5441 5440 5439 5438 5437 5436 5435 5434 5433 5432 5432 5431 5431
5447 5447 5447 5447 5447 5447 5446 5446 5446 5446 5446 5446 5446 5446 5445 5445 5444 5443 5442 5441 5440 5439 5438 5437 5436 5435 5434 5433 5432 5431 5430 5428 5427 5426 5425 5424 5423 5422 5421 5421 5421 5420 5420
5438 5438 5438 5437 5437 5437 5437 5437 5437 5437 5436 5436 5436 5435 5435 5434 5433 5432 5431 5430 5429 5428 5427 5426 5425 5424 5422 5421 5420 5419 5418 5416 5415 5414 5413 5412 5411 5410 5410 5410 5410 5409 5409
5430 5429 5429 5429 5429 5428 5428 5428 5428 5427 5427 5426 5426 5425 5424 5423 5423 5422 5421 5420 5418 5417 5416 5415 5414 5412 5411 5410 5409 5407 5406 5405 5404 5402 5401 5400 5400 5399 5399 5399 5398 5398 5398
5421 5421 5421 5420 5420 5420 5419 5419 5418 5418 5417 5417 5416 5415 5414 5413 5412 5411 5410 5409 5408 5407 5406 5404 5403 5402 5400 5399 5398 5397 5395 5394 5393 5391 5390 5389 5389 5389 5389 5388 5388 5387 5387
5413 5413 5413 5412 5412 5411 5410 5410 5409 5409 5408 5407 5406 5405 5404 5403 5402 5401 5400 5399 5398 5397 5396 5394 5393 5392 5390 5389 5388 5386 5385 5384 5383 5382 5381 5380 5380 5379 5379 5378 5378 5377 5377
5406 5405 5405 5404 5403 5402 5402 5401 5400 5399 5399 5398 5397 5396 5395 5394 5393 5392 5391 5390 5389 5387 5386 5385 5383 5382 5381 5380 5378 5377 5376 5375 5374 5373 5372 5372 5371 5370 5369 5369 5368 5368 5368
5398 5397 5396 5395 5394 5393 5392 5391 5391 5390 5389 5388 5388 5387 5386 5385 5384 5383 5382 5381 5379 5378 5377 5375 5374 5373 5372 5371 5369 5368 5367 5366 5365 5364 5364 5363 5362 5361 5360 5359 5359 5359 5359
Wind_Speed
33 33 33 33 34 34 34 33 33 34 35 36 36 36 37 38 39 40 41 41 42 43 43 44 44 44 44 45 46 47 47 48 48 48 49 48 48 48 48 49 49 50 51
33 33 34 34 34 34 33 33 33 33 34 35 35 35 36 36 37 39 41 42 42 43 43 43 44 45 45 45 46 47 47 47 48 48 48 49 49 49 49 50 50 51 51
33 34 34 34 34 34 34 34 34 34 34 34 35 35 35 36 37 38 40 42 42 43 43 44 44 44 45 46 46 46 46 46 47 48 48 48 49 50 50 51 50 51 52
34 34 34 34 34 34 34 34 34 34 34 35 36 36 35 36 37 37 38 40 41 42 43 43 44 45 45 46 46 46 46 46 46 46 47 47 48 48 49 50 50 51 52
34 34 34 34 34 34 34 34 35 35 35 35 35 36 36 36 37 38 38 39 41 41 43 44 44 45 46 46 47 47 47 47 46 46 46 46 47 47 48 49 50 51 52
35 35 35 35 35 35 35 35 36 36 35 35 36 36 37 37 38 39 40 40 41 42 43 44 44 45 46 46 46 46 46 46 45 45 45 45 46 47 48 49 49 50 50
35 35 36 36 36 36 36 36 36 36 36 36 37 37 37 38 38 39 41 41 41 42 43 43 44 45 45 45 45 45 46 46 47 46 46 46 46 46 48 49 49 49 49
36 36 37 36 37 37 36 36 36 36 37 37 38 38 38 38 39 39 40 40 40 41 42 43 43 43 44 44 45 45 46 47 47 47 47 47 47 47 47 48 49 49 50
36 36 36 37 36 36 36 36 37 37 38 38 39 39 39 39 39 39 40 39 40 40 41 42 43 43 43 44 45 45 46 46 47 47 47 47 48 49 49 50 50 50 50
35 35 35 35 35 35 36 36 36 37 38 39 39 40 40 39 40 39 40 40 40 40 41 42 43 44 44 44 45 45 46 46 46 47 48 48 48 49 49 50 51 51 52
34 34 35 35 35 35 35 36 36 36 37 37 38 38 38 38 38 39 39 40 41 41 41 41 42 43 44 44 45 45 45 45 45 46 47 48 48 49 49 50 51 52 52
35 35 36 35 35 35 35 35 35 35 36 36 36 37 37 37 37 38 39 39 40 40 41 41 41 42 43 44 44 44 45 45 46 47 47 48 49 49 50 50 50 51 51
36 36 36 35 35 35 35 35 35 35 36 36 37 37 37 37 38 38 38 39 39 39 40 40 41 41 42 43 43 44 45 46 46 47 46 47 48 48 49 49 50 51 51
35 35 35 35 35 35 35 35 36 37 37 37 38 38 38 38 38 39 39 40 40 40 40 40 40 41 42 43 43 43 44 44 44 44 45 46 47 48 48 48 48 48 48
35 34 35 35 35 35 35 36 36 36 37 37 37 37 37 38 38 39 39 39 40 40 40 40 41 41 42 42 43 43 43 43 42 43 43 44 45 45 46 46 46 46 46
34 34 34 35 35 35 36 36 36 36 36 37 37 37 37 37 37 38 39 39 39 39 39 40 40 41 41 42 42 42 42 41 41 41 42 43 43 44 44 45 45 45 45
33 33 34 34 35 35 35 35 35 35 36 36 36 36 35 36 36 37 37 37 37 38 38 38 39 40 40 40 40 40 40 40 40 40 41 41 42 42 43 43 42 42 42
31 31 32 32 33 34 34 34 34 34 35 35 35 34 35 35 35 35 35 36 36 37 37 37 38 38 38 38 37 38 38 39 39 40 40 41 41 41 41 40 40 40 40
29 29 30 30 31 31 32 32 32 33 33 33 34 34 35 35 35 35 35 35 36 36 36 37 37 37 37 37 37 37 37 38 39 39 40 40 40 40 39 38 38 37 37
28 29 29 29 29 29 30 31 31 31 31 32 32 33 34 34 34 35 35 36 36 36 35 35 36 36 36 36 37 38 38 38 38 39 39 39 39 39 38 38 36 36 36
27 28 28 27 27 27 28 28 29 29 30 30 31 32 32 33 33 34 34 34 34 34 34 34 35 35 35 36 36 36 37 38 38 38 38 38 38 37 36 36 35 35 35
26 26 26 27 27 27 28 28 28 29 29 30 31 31 32 33 33 33 33 33 33 32 33 33 33 34 34 34 35 35 36 36 36 37 36 36 35 35 34 34 34 34 35
25 25 25 26 26 27 27 27 28 28 29 30 30 31 31 32 32 32 32 32 32 32 32 33 32 32 33 33 33 33 33 33 33 33 32 32 32 32 32 32 33 33 33
25 25 25 26 26 27 27 28 29 29 29 30 30 30 30 30 30 31 31 31 31 31 31 32 32 32 32 32 32 32 31 31 30 29 29 29 30 30 31 31 31 31 31
25 25 26 26 27 27 28 29 29 30 30 29 29 29 29 29 29 29 29 30 30 30 30 31 30 30 30 30 30 30 29 28 27 27 27 28 29 30 30 30 30 29 30
25 25 26 27 27 28 29 29 29 29 29 29 28 28 28 28 28 28 28 28 28 28 29 29 29 29 29 29 28 28 27 27 27 27 27 28 28 29 29 28 29 29 29
Wind_Direction
261 261 260 259 259 259 260 260 259 259 258 257 254 253 253 252 252 252 251 252 254 254 255 256 258 258 258 259 260 261 262 262 262 262 261 261 261 261 261 260 261 261 261
260 261 261 260 259 260 260 261 261 260 259 257 255 255 255 255 255 255 254 254 255 256 256 257 259 259 260 260 261 262 263 263 263 263 262 262 261 261 262 261 260 261 261
259 261 261 260 261 261 261 261 260 260 260 257 255 257 257 258 258 258 258 257 257 258 259 259 260 261 262 262 263 263 264 264 264 264 263 263 262 262 263 263 261 262 262
260 261 261 261 262 262 262 261 261 260 259 258 258 259 259 259 259 260 259 259 260 260 260 261 262 262 262 263 264 264 265 265 265 265 264 264 264 264 265 264 263 263 262
259 260 260 262 263 263 263 262 261 260 260 259 259 259 260 260 261 260 260 261 261 261 261 261 262 263 263 263 264 264 264 264 265 265 265 265 265 265 266 265 265 264 262
259 260 261 263 263 264 263 262 261 260 260 260 261 261 262 262 262 262 262 263 263 262 263 262 263 263 264 263 263 264 264 264 265 266 267 267 267 267 266 265 265 265 264
260 261 261 262 263 264 263 261 260 260 259 260 261 262 263 263 263 263 263 264 264 263 263 263 264 264 265 263 264 265 265 266 266 267 268 268 268 269 268 266 265 265 266
261 262 262 263 263 263 262 260 261 261 260 261 262 263 264 264 264 265 265 265 265 265 264 265 265 265 265 265 265 266 268 268 268 267 267 267 267 267 268 267 267 266 266
262 263 264 264 264 264 263 261 262 262 262 263 264 264 265 266 267 268 268 268 267 267 267 266 265 265 266 266 267 267 268 269 269 268 267 267 267 267 268 268 267 267 267
262 263 264 264 264 264 263 262 262 263 263 264 265 266 266 267 268 269 269 269 269 269 268 267 267 266 267 268 268 268 269 269 269 268 267 267 267 268 268 268 268 268 268
263 263 264 264 264 263 263 262 263 263 264 265 266 266 266 268 269 268 269 269 270 270 270 269 268 268 268 270 270 269 269 268 268 268 267 267 267 267 268 268 268 269 269
264 264 264 263 263 263 262 263 264 265 266 266 267 267 268 269 269 269 268 270 271 271 271 270 269 269 269 270 271 270 270 268 268 269 269 268 268 267 267 267 268 268 268
264 264 263 262 262 263 263 263 265 267 268 268 268 269 270 269 269 269 269 270 270 270 271 270 269 269 269 270 271 271 271 270 269 269 269 269 268 268 268 268 268 268 269
264 264 263 262 262 263 264 265 265 267 268 270 270 271 270 270 270 269 270 270 270 270 270 270 269 269 270 271 271 272 272 271 271 270 270 269 269 269 269 269 268 269 269
264 263 263 263 262 263 264 265 266 267 268 270 271 271 271 271 271 272 271 271 271 271 271 271 270 270 271 272 272 273 272 272 272 271 271 271 270 270 270 269 269 269 269
265 264 264 264 264 264 265 265 265 266 268 269 270 271 271 272 272 272 272 272 273 273 272 272 272 272 272 272 273 273 272 272 273 273 272 272 271 271 270 270 270 270 269
267 266 266 266 266 267 266 266 266 266 268 269 270 271 273 273 274 274 273 274 274 274 274 274 274 273 273 273 273 272 272 272 272 273 272 272 272 272 272 271 271 270 268
267 266 267 267 268 268 267 267 267 267 267 268 270 271 273 274 274 275 274 274 274 274 275 275 275 274 274 273 273 272 271 271 272 272 272 272 272 272 272 271 270 268 269
266 266 266 268 268 268 268 268 268 268 268 268 269 270 272 273 274 275 275 275 275 276 276 276 276 275 274 273 272 272 272 272 273 272 272 272 272 272 272 271 270 269 271
265 265 266 267 267 268 268 268 268 269 269 270 270 271 272 273 274 274 275 276 277 277 277 276 276 275 275 274 273 273 273 273 273 272 273 272 271 270 271 270 270 271 273
266 266 265 265 266 267 269 269 270 270 270 270 271 271 273 274 275 275 276 276 278 278 278 277 276 276 276 275 274 273 273 273 273 273 273 272 271 270 269 269 271 272 273
269 267 266 266 266 267 268 269 270 271 271 272 273 273 275 276 276 276 276 275 277 278 278 278 278 277 276 275 274 274 275 275 274 273 272 271 270 268 267 269 271 272 272
270 269 268 268 269 269 269 270 272 272 273 274 274 274 276 277 276 275 275 276 277 278 278 278 277 277 276 275 275 275 275 274 273 273 272 270 268 267 268 271 272 271 271
272 271 270 271 272 271 271 271 272 273 274 275 275 276 276 277 277 276 276 276 278 278 278 278 277 277 277 276 275 275 275 274 274 273 271 270 269 269 271 272 272 271 271
274 273 273 273 274 274 273 273 274 274 274 275 276 277 277 277 277 277 276 277 278 278 278 277 277 276 276 275 275 275 275 273 272 271 272 273 273 273 273 272 271 270 271
275 275 275 276 277 276 276 275 275 274 274 274 275 276 277 278 278 277 278 279 279 279 279 277 276 276 276 275 274 274 273 271 271 272 274 276 276 276 274 271 270 270 271